Location: Bruchhof
(51.8738°N, 9.9256°E)
Time: 13:12:24
(UTC+00:00)

ADEOS II - Visible Passes

Search period start: 14 September 2024 00:00
Search period end: 24 September 2024 00:00
Orbit: 795 x 798 km, 98.7° (Epoch: 13 September)

Date Brightness Start Highest point End Pass type
(mag) Time Alt. Az. Time Alt. Az. Time Alt. Az.
14 Sep 4.2 00:27:25 10° NE 00:30:43 17° E 00:31:19 16° E visible
14 Sep 2.0 02:05:46 10° NNE 02:11:02 87° WNW 02:12:10 57° SSW visible
14 Sep 3.7 03:46:28 10° N 03:49:58 18° NW 03:53:01 12° W visible
15 Sep 2.4 01:38:10 10° NNE 01:43:22 59° ESE 01:44:06 53° SE visible
15 Sep 3.2 03:18:19 10° N 03:22:40 27° WNW 03:24:57 20° W visible
16 Sep 3.2 01:10:46 10° NNE 01:15:35 36° E 01:16:02 35° ESE visible
16 Sep 2.6 02:50:22 10° N 02:55:16 41° WNW 02:56:53 32° WSW visible
17 Sep 3.9 00:43:37 10° NE 00:47:41 22° E 00:47:58 22° E visible
17 Sep 2.1 02:22:33 10° N 02:27:46 66° WNW 02:28:49 53° WSW visible
17 Sep 3.9 04:03:42 10° NNW 04:06:27 15° NW 04:09:11 10° W visible
18 Sep 4.5 00:17:06 10° NE 00:19:40 14° E 00:19:53 14° E visible
18 Sep 2.0 01:54:52 10° NNE 02:00:09 79° ESE 02:00:44 68° SSE visible
18 Sep 3.5 03:35:20 10° N 03:39:13 21° NW 03:41:36 16° W visible
19 Sep 2.7 01:27:20 10° NNE 01:32:25 48° E 01:32:40 48° ESE visible
19 Sep 3.0 03:07:15 10° N 03:11:52 32° WNW 03:13:31 26° W visible
20 Sep 3.5 01:00:00 10° NNE 01:04:35 30° E 01:04:35 30° E visible
20 Sep 2.3 02:39:21 10° N 02:44:25 50° WNW 02:45:26 43° WSW visible
20 Sep 4.1 04:21:18 10° NNW 04:22:53 11° NW 04:24:28 10° WNW visible
21 Sep 4.2 00:33:01 10° NE 00:36:30 18° E 00:36:30 18° E visible
21 Sep 1.9 02:11:35 10° NNE 02:16:51 79° WNW 02:17:21 71° SW visible
21 Sep 3.8 03:52:25 10° NNW 03:55:41 17° NW 03:58:12 12° W visible
22 Sep 4.7 00:07:15 10° ENE 00:08:24 11° E 00:08:24 11° E visible
22 Sep 2.3 01:43:57 10° NNE 01:49:11 65° ESE 01:49:15 65° ESE visible
22 Sep 3.3 03:24:11 10° N 03:28:24 25° WNW 03:30:07 21° W visible
23 Sep 3.1 01:16:28 10° NNE 01:21:10 39° E 01:21:10 39° E visible
23 Sep 2.7 02:56:11 10° N 03:01:00 38° WNW 03:02:01 35° W visible
